Regional Weather Roundup
Issued by NWS

Home | Current Version | Previous Version | Text Only | Print | Product List | Glossary Off
Versions: 1 2 3 4 5 6 7 8 9 10 11 12 13 14 15 16 17 18 19 20 21 22 23 24 25 26 27 28 29 30 31 32 33 34 35 36 37 38 39 40 41 42 43 44 45 46 47 48 49 50

000
ASUS44 KMEG 161110
RWRTN
TENNESSEE HOURLY STATE WEATHER ROUNDUP
NATIONAL WEATHER SERVICE MEMPHIS TN
500 AM CST MON JAN 16 2017

TNZ002-004-019-021-049-052-054-088>092-161200-
WEST TENNESSEE

CITY           SKY/WX    TMP DP  RH WIND       PRES   REMARKS
MEMPHIS INTL   CLOUDY    52  52 100 E5        30.11F
NWS MEMPHIS      N/A     50 N/A N/A MISG        N/A
JACKSON        CLOUDY    51  51 100 SE3       30.16S FOG
DYERSBURG      CLOUDY    46  45  93 SE5       30.13F
UNION CITY     CLOUDY   N/A N/A N/A CALM      30.14S VSB 1/2
PARIS          CLEAR     45  45 100 E8        30.17S
HUNTINGDON     MOCLDY    48  48 100 E5        30.16S FOG
$$

TNZ008-025-027-028-033-062-065-066-161200-
NORTH MIDDLE TENNESSEE

CITY           SKY/WX    TMP DP  RH WIND       PRES   REMARKS
NASHVILLE      FOG       49  48  97 CALM      30.23R VSB 1/4
PORTLAND       CLOUDY    45  45 100 CALM      30.22S FOG
CLARKSVILLE    FOG       45  44  97 E6        30.20F VSB 1/4
SMYRNA         CLOUDY    47  47 100 CALM      30.24R FOG
GALLATIN       FOG       48  48 100 CALM      30.26R VSB 1/4
CROSSVILLE     FOG       48  48 100 SE3       30.25S VSB<1/4
$$

TNZ061-075-076-078-094-096-097-161200-
SOUTH MIDDLE TENNESSEE

CITY           SKY/WX    TMP DP  RH WIND       PRES   REMARKS
FAYETTEVILLE   CLOUDY    54  54 100 CALM      30.22R
TULLAHOMA      MOCLDY    48  48 100 CALM      30.23R
WINCHESTER     CLOUDY    54  52  94 E6        30.23R
MCMINNVILLE    CLOUDY    48  48 100 CALM      30.23R
COLUMBIA       CLOUDY   N/A N/A N/A CALM      30.19S
SHELBYVILLE    CLOUDY    52  52 100 CALM      30.22S
$$

TNZ017-018-042-046-047-161200-
NORTHEAST TENNESSEE

CITY           SKY/WX    TMP DP  RH WIND       PRES   REMARKS
TRI CITIES     FOG       53  53 100 CALM      30.27R VSB 1/4
ELIZABETHTON   CLOUDY    52  50  93 CALM      30.27S
$$

TNZ012-013-036-069-073-074-161200-
CENTRAL EAST TENNESSEE

CITY           SKY/WX    TMP DP  RH WIND       PRES   REMARKS
KNOXVILLE      FOG       53  52  96 NE3       30.26R VSB 1/16
OAK RIDGE      CLOUDY    55  53  93 CALM      30.28R
GATLINBURG     CLOUDY    52  50  93 CALM      30.26S VSB 1/4
MORRISTOWN     FOG       54  54 100 CALM      30.26R VSB 0
JACKSBORO      CLOUDY    54  54 100 CALM      30.30R FOG
$$

TNZ083-085-099-161200-
SOUTHEAST TENNESSEE

CITY           SKY/WX    TMP DP  RH WIND       PRES   REMARKS
CHATTANOOGA    MOCLDY    50  48  93 CALM      30.25R FOG
$$

SKY/WX REPORTED AS FAIR MEANS FEW OR NO CLOUDS BELOW
12 THOUSAND FEET.





USA.gov is the U.S. government's official web portal to all federal, state and local government web resources and services.